Terug naar catalogus

P/L 153 DEB

ActiefLEO
NORAD 19245·DEBRIS·🇺🇸 United States

Gelanceerd May 31, 1967 vanaf Vandenberg Space Force Base

Loading…

Volgende Passages (komende 24 uur)

TLE

VersSource: Space-Track

Epoch: Sep 13, 2026, 22:37 UTC

1 19245U 67053K   26256.94281347  .00000417  00000-0  20999-3 0  9995
2 19245  69.9565 139.0615 0005073 338.4671  34.6670 14.23077522 42943

Volg P/L 153 DEB in realtime met AllMySat

Download on the App Store